EW2670 Weather Reports


Display with metric or nautical units.
time (UTC)temp
F
wind
direction
speed
MPH
gust
MPH
rain 1hr
in
rain 24hr
in
rain mn
in
humidity
%
barometer
mb
20260509190517 73 90 8.0 16.0 0.00 0.00 0.00 22 1007.4
20260509190018 74 90 2.0 5.0 0.00 0.00 0.00 23 1007.7
20260509185539 73 135 8.0 13.0 0.00 0.00 0.00 21 1007.6
20260509185016 73 112 7.0 10.0 0.00 0.00 0.00 22 1007.6
20260509184518 73 90 6.0 14.0 0.00 0.00 0.00 22 1007.8
20260509184017 73 90 8.0 16.0 0.00 0.00 0.00 24 1008.0
20260509183517 73 90 5.0 13.0 0.00 0.00 0.00 24 1007.9
20260509183016 73 67 7.0 11.0 0.00 0.00 0.00 21 1007.7
20260509182517 73 112 7.0 13.0 0.00 0.00 0.00 25 1008.1
20260509182017 72 90 8.0 14.0 0.00 0.00 0.00 23 1008.0
20260509181518 73 67 7.0 14.0 0.00 0.00 0.00 23 1008.0
20260509181017 73 90 9.0 15.0 0.00 0.00 0.00 24 1008.1
20260509180517 73 67 10.0 19.0 0.00 0.00 0.00 26 1008.2
20260509180017 74 90 9.0 21.0 0.00 0.00 0.00 26 1008.3
20260509175518 72 67 6.0 12.0 0.00 0.00 0.00 25 1008.3
20260509175038 72 67 5.0 13.0 0.00 0.00 0.00 27 1008.5
20260509174517 73 45 5.0 13.0 0.00 0.00 0.00 24 1008.6
20260509174017 73 67 6.0 13.0 0.00 0.00 0.00 28 1008.6
20260509173518 73 67 8.0 18.0 0.00 0.00 0.00 28 1008.8
20260509173018 73 90 10.0 17.0 0.00 0.00 0.00 29 1008.8
20260509172517 72 67 9.0 17.0 0.00 0.00 0.00 27 1008.8
20260509172017 72 45 4.0 12.0 0.00 0.00 0.00 27 1008.6
20260509171518 73 22 4.0 9.0 0.00 0.00 0.00 25 1008.7
20260509171017 72 337 4.0 9.0 0.00 0.00 0.00 24 1008.7
20260509170537 72 22 1.0 5.0 0.00 0.00 0.00 22 1008.6
20260509170017 72 67 3.0 8.0 0.00 0.00 0.00 21 1008.6
20260509165517 72 270 4.0 7.0 0.00 0.00 0.00 22 1008.7
20260509165017 72 22 3.0 5.0 0.00 0.00 0.00 22 1008.6
20260509164518 72 337 3.0 6.0 0.00 0.00 0.00 20 1008.7
20260509164037 72 315 2.0 5.0 0.00 0.00 0.00 22 1008.8
20260509163517 72 337 3.0 7.0 0.00 0.00 0.00 22 1008.7
20260509163017 71 337 2.0 8.0 0.00 0.00 0.00 21 1008.6
20260509162517 71 67 4.0 10.0 0.00 0.00 0.00 24 1008.6
20260509162017 70 112 2.0 5.0 0.00 0.00 0.00 25 1008.5
20260509161517 70 90 4.0 8.0 0.00 0.00 0.00 25 1008.6
20260509161037 69 270 2.0 7.0 0.00 0.00 0.00 27 1008.5
20260509160517 69 90 2.0 6.0 0.00 0.00 0.00 27 1008.4
20260509160038 69 90 5.0 7.0 0.00 0.00 0.00 28 1008.5
20260509155517 69 112 3.0 7.0 0.00 0.00 0.00 30 1008.5
20260509155017 69 247 2.0 4.0 0.00 0.00 0.00 29 1008.5
20260509154517 69 67 2.0 5.0 0.00 0.00 0.00 29 1008.4
20260509154038 68 67 3.0 7.0 0.00 0.00 0.00 28 1008.3
20260509153517 68 67 1.0 4.0 0.00 0.00 0.00 30 1008.4
20260509153037 67 67 3.0 7.0 0.00 0.00 0.00 30 1008.4
20260509152537 68 180 1.0 3.0 0.00 0.00 0.00 32 1008.5
20260509152017 68 135 1.0 4.0 0.00 0.00 0.00 31 1008.6
20260509151517 67 180 2.0 4.0 0.00 0.00 0.00 30 1008.5
20260509151017 66 135 2.0 4.0 0.00 0.00 0.00 34 1008.6
20260509150537 65 135 3.0 6.0 0.00 0.00 0.00 32 1008.7
20260509150017 64 135 2.0 4.0 0.00 0.00 0.00 36 1008.8
20260509145517 63 135 2.0 4.0 0.00 0.00 0.00 38 1008.9
20260509145017 63 135 2.0 4.0 0.00 0.00 0.00 42 1009.0
20260509144517 62 180 2.0 4.0 0.00 0.00 0.00 44 1008.9
20260509144017 61 180 1.0 3.0 0.00 0.00 0.00 45 1008.8
20260509143517 62 202 4.0 5.0 0.00 0.00 0.00 47 1008.9
20260509143017 61 135 3.0 5.0 0.00 0.00 0.00 47 1008.9
20260509142517 61 202 6.0 8.0 0.00 0.00 0.00 49 1009.0
20260509142017 61 180 2.0 4.0 0.00 0.00 0.00 44 1009.0
20260509141537 61 135 1.0 3.0 0.00 0.00 0.00 46 1008.9
20260509141017 61 112 2.0 3.0 0.00 0.00 0.00 46 1009.0
20260509140517 61 135 2.0 3.0 0.00 0.00 0.00 47 1009.0
20260509140018 60 135 2.0 3.0 0.00 0.00 0.00 51 1009.1
20260509135517 58 135 1.0 3.0 0.00 0.00 0.00 54 1009.1
20260509135017 57 135 1.0 3.0 0.00 0.00 0.00 58 1008.9
20260509134517 56 0.0 2.0 0.00 0.00 0.00 62 1009.0
20260509134017 55 0.0 0.0 0.00 0.00 0.00 63 1009.0
20260509133517 53 0.0 0.0 0.00 0.00 0.00 67 1008.9
20260509133017 52 112 1.0 2.0 0.00 0.00 0.00 62 1008.6
20260509132517 51 0.0 2.0 0.00 0.00 0.00 66 1008.7
20260509132017 51 112 2.0 4.0 0.00 0.00 0.00 65 1008.7
20260509131517 52 90 2.0 5.0 0.00 0.00 0.00 64 1008.7
20260509131018 52 157 1.0 5.0 0.00 0.00 0.00 67 1008.6
20260509130517 52 270 2.0 3.0 0.00 0.00 0.00 66 1008.6
20260509130018 53 270 1.0 2.0 0.00 0.00 0.00 60 1008.6
20260509125517 54 22 1.0 2.0 0.00 0.00 0.00 52 1008.5
20260509125017 54 292 2.0 3.0 0.00 0.00 0.00 51 1008.3
20260509124517 54 247 2.0 3.0 0.00 0.00 0.00 53 1008.4
20260509124017 53 247 2.0 5.0 0.00 0.00 0.00 54 1008.1
20260509123517 52 247 4.0 5.0 0.00 0.00 0.00 58 1008.2
20260509123017 51 270 3.0 7.0 0.00 0.00 0.00 60 1008.2
20260509122517 52 270 3.0 9.0 0.00 0.00 0.00 57 1007.9
20260509122016 50 315 2.0 5.0 0.00 0.00 0.00 61 1007.7
20260509121517 50 270 2.0 5.0 0.00 0.00 0.00 64 1007.8
20260509121017 49 270 1.0 4.0 0.00 0.00 0.00 66 1007.6
20260509120517 48 270 3.0 7.0 0.00 0.00 0.00 70 1007.5
20260509120037 48 270 2.0 4.0 0.00 0.00 0.00 68 1007.5
20260509115516 48 202 1.0 2.0 0.00 0.00 0.00 68 1007.6
20260509115016 48 202 3.0 5.0 0.00 0.00 0.00 69 1007.5
20260509114517 47 90 3.0 7.0 0.00 0.00 0.00 70 1007.5
20260509114016 47 202 3.0 4.0 0.00 0.00 0.00 71 1007.4
20260509113516 46 112 3.0 7.0 0.00 0.00 0.00 72 1007.4
20260509113016 48 112 1.0 4.0 0.00 0.00 0.00 66 1007.2
20260509112517 48 0.0 0.0 0.00 0.00 0.00 67 1007.3
20260509112016 47 315 2.0 4.0 0.00 0.00 0.00 69 1007.3
20260509111517 47 315 1.0 3.0 0.00 0.00 0.00 68 1007.2
20260509111016 48 0.0 2.0 0.00 0.00 0.00 68 1007.1
20260509110517 47 315 2.0 3.0 0.00 0.00 0.00 71 1007.2
20260509110017 46 202 3.0 7.0 0.00 0.00 0.00 73 1007.2
20260509105516 47 0.0 4.0 0.00 0.00 0.00 71 1007.3
20260509105017 48 270 2.0 5.0 0.00 0.00 0.00 71 1007.4
20260509104516 47 292 2.0 5.0 0.00 0.00 0.00 72 1007.5
20260509104016 48 0.0 2.0 0.00 0.00 0.00 71 1007.3
20260509103517 47 292 1.0 2.0 0.00 0.00 0.00 76 1007.2
20260509103016 45 180 3.0 6.0 0.00 0.00 0.00 80 1007.1
20260509102517 45 180 2.0 4.0 0.00 0.00 0.00 78 1007.0
20260509102037 46 180 2.0 9.0 0.00 0.00 0.00 77 1007.2
20260509101516 47 0 2.0 8.0 0.00 0.00 0.00 74 1007.3
20260509101016 47 202 2.0 6.0 0.00 0.00 0.00 75 1007.3
20260509100516 47 202 1.0 2.0 0.00 0.00 0.00 76 1007.2
20260509100016 47 337 2.0 7.0 0.00 0.00 0.00 76 1007.3
20260509095536 48 315 2.0 7.0 0.00 0.00 0.00 73 1007.2
20260509095016 47 0.0 0.0 0.00 0.00 0.00 76 1007.2
20260509094517 47 180 1.0 3.0 0.00 0.00 0.00 76 1007.1
20260509094037 47 180 2.0 4.0 0.00 0.00 0.00 75 1007.0
20260509093517 46 180 1.0 2.0 0.00 0.00 0.00 76 1007.1
20260509093037 48 180 1.0 2.0 0.00 0.00 0.00 73 1007.3
20260509092516 49 225 1.0 4.0 0.00 0.00 0.00 69 1007.4
20260509092016 49 225 1.0 2.0 0.00 0.00 0.00 72 1007.1
20260509091516 46 225 1.0 3.0 0.00 0.00 0.00 79 1007.0
20260509091016 46 225 3.0 4.0 0.00 0.00 0.00 76 1006.9
20260509090516 47 0.0 0.0 0.00 0.00 0.00 76 1006.9
20260509090057 46 0.0 0.0 0.00 0.00 0.00 78 1007.0
20260509085516 46 225 1.0 3.0 0.00 0.00 0.00 74 1007.0
20260509085016 48 270 1.0 3.0 0.00 0.00 0.00 75 1007.0
20260509084537 48 0.0 2.0 0.00 0.00 0.00 76 1007.1
20260509084016 47 135 1.0 3.0 0.00 0.00 0.00 75 1007.0
20260509083516 47 202 1.0 4.0 0.00 0.00 0.00 75 1007.0
20260509083016 49 315 2.0 4.0 0.00 0.00 0.00 74 1007.0
20260509082557 48 225 3.0 5.0 0.00 0.00 0.00 76 1006.9
20260509082017 48 292 3.0 5.0 0.00 0.00 0.00 76 1006.9
20260509081516 48 225 3.0 4.0 0.00 0.00 0.00 78 1006.9
20260509081016 46 225 1.0 3.0 0.00 0.00 0.00 79 1006.9
20260509080516 46 0.0 0.0 0.00 0.00 0.00 78 1007.0
20260509080016 47 225 1.0 2.0 0.00 0.00 0.00 77 1007.0
20260509075516 48 0.0 2.0 0.00 0.00 0.00 75 1007.1
20260509075036 48 225 2.0 3.0 0.00 0.00 0.00 77 1007.0
20260509074516 49 225 1.0 3.0 0.00 0.00 0.00 76 1007.2
20260509074016 49 0.0 2.0 0.00 0.00 0.00 75 1007.1
20260509073536 49 0.0 0.0 0.00 0.00 0.00 76 1007.2
20260509073016 49 0.0 1.0 0.00 0.00 0.00 76 1007.3
20260509072536 49 0.0 2.0 0.00 0.00 0.00 73 1007.3
20260509072016 50 0.0 1.0 0.00 0.00 0.00 75 1007.5
20260509071516 50 0.0 0.0 0.00 0.00 0.00 73 1007.5
20260509071016 49 225 1.0 3.0 0.00 0.00 0.00 74 1007.6
20260509070536 49 225 1.0 3.0 0.00 0.00 0.00 76 1007.5
20260509070016 49 225 1.0 2.0 0.00 0.00 0.00 75 1007.5
20260509065556 49 225 2.0 3.0 0.00 0.00 0.00 74 1007.7
20260509065016 50 225 2.0 3.0 0.00 0.00 0.00 74 1007.6
20260509064516 50 315 1.0 3.0 0.00 0.00 0.00 71 1007.7
20260509064016 51 0.0 1.0 0.00 0.00 0.00 69 1007.7
20260509063516 51 0.0 2.0 0.00 0.00 0.00 70 1007.6
20260509063016 51 0.0 2.0 0.00 0.00 0.00 69 1007.8
20260509062516 52 0.0 1.0 0.00 0.00 0.00 68 1007.9
20260509062016 52 315 1.0 3.0 0.00 0.00 0.00 67 1008.0
20260509061536 53 337 1.0 4.0 0.00 0.00 0.00 67 1008.0
20260509061037 53 0.0 2.0 0.00 0.00 0.00 67 1008.1
20260509060516 53 337 2.0 4.0 0.00 0.00 0.00 68 1008.1
20260509060019 52 337 1.0 2.0 0.00 0.00 0.00 68 1008.2
20260509055517 53 337 1.0 2.0 0.00 0.00 0.00 68 1008.3
20260509055017 53 337 1.0 2.0 0.00 0.00 0.00 68 1008.5
20260509054517 54 337 1.0 3.0 0.00 0.00 0.00 68 1008.5
20260509054017 54 337 2.0 4.0 0.00 0.00 0.00 62 1008.6
20260509053517 55 337 1.0 4.0 0.00 0.00 0.00 59 1008.6
20260509053037 56 0.0 0.0 0.00 0.00 0.00 57 1008.7
20260509052517 56 0.0 0.0 0.00 0.00 0.00 58 1008.7
20260509052017 56 0.0 0.0 0.00 0.00 0.00 58 1008.7
20260509051538 56 0.0 1.0 0.00 0.00 0.00 59 1008.7
20260509051017 55 180 1.0 2.0 0.00 0.00 0.00 63 1008.6
20260509050517 55 180 2.0 4.0 0.00 0.00 0.00 63 1008.7
20260509050017 55 180 2.0 4.0 0.00 0.00 0.00 62 1008.7
20260509045517 56 180 3.0 4.0 0.00 0.00 0.00 61 1008.6
20260509045017 55 180 2.0 3.0 0.00 0.00 0.00 62 1008.7
20260509044517 55 180 3.0 4.0 0.00 0.00 0.00 62 1008.6
20260509044017 55 180 3.0 4.0 0.00 0.00 0.00 61 1008.8
20260509043517 55 180 2.0 3.0 0.00 0.00 0.00 61 1008.8
20260509043037 56 180 3.0 3.0 0.00 0.00 0.00 61 1008.9
20260509042517 55 202 2.0 3.0 0.00 0.00 0.00 63 1009.0
20260509042017 54 202 2.0 3.0 0.00 0.00 0.00 66 1009.1
20260509041517 55 202 3.0 4.0 0.00 0.00 0.00 64 1009.2
20260509041017 56 180 2.0 3.0 0.00 0.00 0.00 62 1009.1
20260509040537 56 180 2.0 3.0 0.00 0.00 0.00 62 1009.2
20260509040017 56 180 1.0 3.0 0.00 0.00 0.00 63 1009.0
20260509035517 57 180 2.0 3.0 0.00 0.00 0.00 60 1009.2
20260509035016 57 180 2.0 4.0 0.00 0.00 0.00 59 1009.1
20260509034518 56 225 2.0 3.0 0.00 0.00 0.00 62 1009.1
20260509034017 55 225 2.0 3.0 0.00 0.00 0.00 64 1009.0
20260509033517 54 225 1.0 2.0 0.00 0.00 0.00 65 1009.0
20260509033016 53 225 1.0 2.0 0.00 0.00 0.00 66 1009.0
20260509032517 54 225 1.0 2.0 0.00 0.00 0.00 65 1008.9
20260509032036 54 0.0 2.0 0.00 0.00 0.00 64 1008.9
20260509031517 55 225 1.0 1.0 0.00 0.00 0.00 63 1009.0
20260509031017 56 225 2.0 3.0 0.00 0.00 0.00 60 1008.8
20260509030516 57 225 2.0 3.0 0.00 0.00 0.00 56 1008.8
20260509030017 58 157 1.0 3.0 0.00 0.00 0.00 53 1008.9
20260509025517 59 0.0 2.0 0.00 0.00 0.00 50 1008.8
20260509025016 60 0.0 0.0 0.00 0.00 0.00 49 1008.8
20260509024517 61 0.0 0.0 0.00 0.00 0.00 47 1008.6
20260509024016 60 0.0 0.0 0.00 0.00 0.00 47 1008.6
20260509023516 60 0.0 0.0 0.00 0.00 0.00 49 1008.3
20260509023017 60 0.0 1.0 0.00 0.00 0.00 48 1008.3
20260509022517 60 0.0 2.0 0.00 0.00 0.00 48 1008.3
20260509022016 60 0.0 0.0 0.00 0.00 0.00 47 1008.3
20260509021517 61 0.0 0.0 0.00 0.00 0.00 47 1008.2
20260509021016 61 0.0 1.0 0.00 0.00 0.00 46 1008.2
20260509020517 61 0.0 1.0 0.00 0.00 0.00 46 1008.4
20260509020016 62 112 1.0 1.0 0.00 0.00 0.00 45 1008.3
20260509015537 62 112 1.0 2.0 0.00 0.00 0.00 45 1008.3
20260509015016 63 112 1.0 3.0 0.00 0.00 0.00 44 1008.3
20260509014517 63 112 3.0 4.0 0.00 0.00 0.00 43 1008.3
20260509014018 64 90 3.0 5.0 0.00 0.00 0.00 43 1008.2
20260509013517 65 90 5.0 7.0 0.00 0.00 0.00 41 1008.2
20260509013016 65 90 7.0 9.0 0.00 0.00 0.00 40 1008.2
20260509012517 65 90 5.0 8.0 0.00 0.00 0.00 41 1008.2
20260509012018 64 90 4.0 6.0 0.00 0.00 0.00 42 1008.2
20260509011516 66 90 5.0 9.0 0.00 0.00 0.00 41 1008.3
20260509011016 67 135 3.0 7.0 0.00 0.00 0.00 37 1008.2
20260509010517 67 112 6.0 9.0 0.00 0.00 0.00 37 1008.3
20260509010036 67 112 4.0 7.0 0.00 0.00 0.00 37 1008.2
20260509005516 67 112 1.0 3.0 0.00 0.00 0.00 37 1008.2
20260509005016 67 112 6.0 8.0 0.00 0.00 0.00 37 1008.3
20260509004516 67 112 7.0 9.0 0.00 0.00 0.00 38 1008.3
20260509004036 68 112 5.0 10.0 0.00 0.00 0.00 37 1008.3
20260509003537 68 112 5.0 9.0 0.00 0.00 0.00 37 1008.2
20260509003036 68 112 5.0 9.0 0.00 0.00 0.00 38 1008.3
20260509002516 68 90 7.0 11.0 0.00 0.00 0.00 37 1008.2
20260509002016 68 90 7.0 10.0 0.00 0.00 0.00 36 1008.3
20260509001516 68 90 2.0 9.0 0.00 0.00 0.00 38 1008.3
20260509001016 68 90 5.0 9.0 0.00 0.00 0.00 35 1008.2
20260509000537 69 67 3.0 7.0 0.00 0.00 0.00 36 1008.3
20260509000016 68 67 4.0 8.0 0.00 0.00 0.00 37 1008.4
20260508235516 68 67 5.0 14.0 0.00 0.00 0.00 37 1008.2
20260508235016 69 90 6.0 10.0 0.00 0.00 0.00 37 1008.2
20260508234516 68 90 6.0 10.0 0.00 0.00 0.00 37 1008.2
20260508234016 68 67 5.0 9.0 0.00 0.00 0.00 38 1008.2
20260508233516 68 90 4.0 9.0 0.00 0.00 0.00 38 1008.1
20260508233016 69 67 5.0 10.0 0.00 0.00 0.00 38 1008.1
20260508232516 68 90 6.0 14.0 0.00 0.00 0.00 37 1008.1
20260508232036 69 67 5.0 10.0 0.00 0.00 0.00 37 1008.0
20260508231517 69 90 5.0 9.0 0.00 0.00 0.00 38 1008.1
20260508231016 69 90 5.0 10.0 0.00 0.00 0.00 37 1008.2
20260508230516 69 112 5.0 10.0 0.00 0.00 0.00 38 1008.3
20260508230017 68 90 5.0 10.0 0.00 0.00 0.00 39 1008.4
20260508225516 68 135 3.0 8.0 0.00 0.00 0.00 38 1008.2
20260508225016 69 90 7.0 13.0 0.00 0.00 0.00 40 1008.2
20260508224516 68 90 7.0 10.0 0.00 0.00 0.00 39 1008.2
20260508224016 70 90 9.0 13.0 0.00 0.00 0.00 40 1008.5
20260508223536 69 90 8.0 14.0 0.00 0.00 0.00 39 1008.5
20260508223016 70 135 5.0 17.0 0.00 0.00 0.00 38 1008.6
20260508222516 69 67 2.0 5.0 0.00 0.00 0.00 37 1008.5
20260508222016 70 90 1.0 3.0 0.00 0.00 0.00 36 1008.6
20260508221516 71 337 1.0 4.0 0.00 0.00 0.00 35 1008.7
20260508221016 70 67 1.0 3.0 0.00 0.00 0.00 35 1008.6
20260508220516 69 45 2.0 5.0 0.00 0.00 0.00 36 1008.7
20260508220016 69 112 4.0 8.0 0.00 0.00 0.00 36 1008.7
20260508215516 69 0 1.0 4.0 0.00 0.00 0.00 37 1008.7
20260508215016 68 135 2.0 5.0 0.00 0.00 0.00 37 1008.6
20260508214516 68 112 4.0 9.0 0.00 0.00 0.00 37 1008.7
20260508214016 69 180 1.0 3.0 0.00 0.00 0.00 37 1008.8
20260508213516 68 112 3.0 7.0 0.00 0.00 0.00 37 1008.6
20260508213016 69 135 4.0 9.0 0.00 0.00 0.00 39 1008.9
20260508212536 69 202 2.0 5.0 0.00 0.00 0.00 37 1008.9
20260508212016 69 202 1.0 3.0 0.00 0.00 0.00 40 1009.0
20260508211516 68 22 1.0 3.0 0.00 0.00 0.00 40 1008.9
20260508211037 67 90 6.0 14.0 0.00 0.00 0.00 39 1009.0
20260508210516 67 90 5.0 11.0 0.00 0.00 0.00 41 1009.2
20260508210016 68 180 3.0 10.0 0.00 0.00 0.00 43 1009.2
20260508205516 67 45 2.0 4.0 0.00 0.00 0.00 39 1009.3
20260508205016 67 180 1.0 4.0 0.00 0.00 0.00 39 1009.3
20260508204516 67 247 2.0 5.0 0.00 0.00 0.00 40 1009.1
20260508204058 67 270 2.0 5.0 0.00 0.00 0.00 40 1009.3
20260508203516 68 0 4.0 9.0 0.00 0.00 0.00 39 1009.3
20260508203036 67 0 4.0 10.0 0.00 0.00 0.00 42 1009.4
20260508202516 66 67 4.0 7.0 0.00 0.00 0.00 41 1009.4
20260508202016 68 45 5.0 9.0 0.00 0.00 0.00 41 1009.6
20260508201516 68 180 2.0 4.0 0.00 0.00 0.00 43 1009.6
20260508201015 67 180 3.0 5.0 0.00 0.00 0.00 40 1009.6
20260508200536 68 292 2.0 5.0 0.00 0.00 0.00 41 1009.7
20260508200015 67 22 1.0 4.0 0.00 0.00 0.00 41 1009.7
20260508195636 67 22 4.0 7.0 0.00 0.00 0.00 41 1009.8
20260508195015 65 112 2.0 7.0 0.00 0.00 0.00 42 1009.9
20260508194516 65 90 6.0 10.0 0.00 0.00 0.00 42 1010.0
20260508194136 66 22 4.0 8.0 0.00 0.00 0.00 43 1010.2
20260508193516 64 90 4.0 11.0 0.00 0.00 0.00 42 1010.0
20260508193016 65 45 3.0 9.0 0.00 0.00 0.00 44 1010.0
20260508192536 64 112 4.0 9.0 0.00 0.00 0.00 44 1010.1
20260508192036 65 67 4.0 8.0 0.00 0.00 0.00 42 1010.4
20260508191516 65 90 3.0 6.0 0.00 0.00 0.00 42 1010.4
20260508191015 65 0 3.0 6.0 0.00 0.00 0.00 43 1010.4